Wind_Speed
71 67 52 60 61 62 65 63 66 64 69 59 62 72 86 98 104 108 111 112 111 111 108 109 112 109 105 104 105 108 108 104 102 98 95 91 92 90 93 95 83 80 81 86
72 54 67 72 70 65 67 65 66 70 68 61 54 55 66 80 86 91 94 98 101 106 109 110 107 110 108 106 105 102 105 107 107 105 103 101 98 94 94 96 98 93 89 89
82 71 79 78 73 67 64 62 66 69 73 68 61 51 56 64 70 78 84 90 93 94 100 106 108 106 104 106 107 105 102 101 103 105 106 107 106 104 103 105 106 108 109 110
93 85 78 77 75 69 64 65 67 72 75 64 65 57 53 57 60 63 77 86 88 92 91 92 93 100 101 101 102 102 102 102 102 101 102 109 114 109 106 106 108 109 110 113
87 91 80 78 68 70 64 73 72 73 69 68 60 55 56 54 55 61 68 77 82 89 93 90 87 85 86 88 92 95 99 104 105 103 104 105 105 106 107 108 109 109 111 110
90 91 87 77 82 79 74 79 75 74 72 62 55 52 56 55 55 59 62 68 76 82 89 89 85 80 78 78 79 81 83 87 91 95 100 104 106 107 110 111 108 103 103 105
85 84 82 84 83 84 77 79 78 78 71 43 61 54 53 56 57 56 59 64 71 74 76 83 84 81 79 77 76 76 76 75 75 77 78 78 80 83 85 87 90 94 93 93
75 82 82 80 76 75 73 78 71 66 58 53 67 53 54 55 56 56 52 55 63 65 68 72 81 83 80 77 74 73 70 70 70 72 73 71 71 75 77 79 78 78 78 80
63 70 79 79 80 80 78 77 72 73 70 67 70 59 54 55 59 55 48 46 52 53 54 59 63 72 77 77 76 75 72 70 69 69 70 71 72 72 71 73 72 70 71 73
56 62 72 77 80 80 77 77 79 75 72 64 64 58 52 60 56 49 42 39 41 41 42 47 51 53 59 63 70 72 65 57 72 75 74 72 74 72 70 73 75 75 72 71
53 56 64 74 82 80 75 76 76 69 65 58 57 55 55 53 47 39 38 43 41 39 39 35 37 43 43 44 48 54 65 60 75 74 74 73 74 77 77 75 71 72 73 74
48 56 63 63 61 67 68 67 65 61 58 55 57 58 55 49 43 41 44 47 41 37 33 31 29 33 41 43 48 54 59 70 74 71 72 71 71 71 73 75 77 78 78 77
46 53 56 59 63 63 61 62 61 57 56 55 58 55 51 46 39 39 42 41 43 41 36 35 36 38 38 38 44 50 58 61 63 64 69 72 74 77 80 80 80 78 75 73
40 47 52 54 51 54 55 56 53 53 52 52 52 49 48 44 41 39 47 49 43 40 41 39 39 47 47 44 50 52 56 60 61 60 59 61 63 67 71 71 70 71 69 67
38 39 43 47 49 52 55 56 55 53 53 49 47 46 43 42 40 41 44 46 50 47 48 48 47 52 42 43 50 56 58 55 54 54 50 50 53 56 58 59 60 60 60 60
35 36 37 43 48 53 57 60 59 58 55 47 45 43 42 42 39 38 38 42 47 50 51 50 57 55 53 54 56 60 59 59 55 48 47 47 49 54 61 60 61 61 63 65
30 33 37 41 46 51 54 53 55 55 51 45 40 42 44 41 38 37 41 46 48 49 43 43 50 60 61 61 59 59 62 62 63 60 58 56 50 54 55 62 66 66 66 65
29 31 35 35 42 45 46 45 48 49 45 43 42 43 43 37 34 39 42 44 44 41 37 43 51 57 67 65 68 62 62 65 64 63 61 56 59 59 61 67 69 71 71 70
31 28 34 34 36 41 41 38 41 42 41 41 41 42 42 42 42 43 39 39 38 37 36 39 43 51 54 57 62 62 67 63 63 65 64 67 71 75 74 75 76 74 70 69
30 28 32 32 35 34 36 37 40 42 42 43 42 44 45 45 39 33 31 35 36 34 37 40 41 44 51 55 63 66 67 68 72 72 71 74 75 73 72 74 76 72 73 74
26 36 34 34 35 35 36 36 35 35 37 40 42 43 42 36 31 33 35 34 34 36 36 39 41 42 44 46 52 62 65 67 69 73 69 73 70 69 69 70 67 67 67 68
38 38 39 36 40 38 37 37 37 38 38 39 39 39 35 33 32 31 34 36 35 35 34 35 38 42 46 50 54 56 59 65 72 72 71 70 69 66 65 62 60 61 60 58
37 42 43 46 42 42 39 39 39 39 40 38 34 35 32 30 30 26 20 25 31 33 33 39 40 43 47 50 53 54 55 58 59 58 58 59 59 58 56 53 49 46 45 45
33 42 36 39 37 36 40 36 38 33 30 25 28 28 25 31 28 23 24 28 32 37 43 42 40 42 43 47 50 52 50 50 51 51 51 50 47 44 38 37 35 31 28 27
38 39 32 36 44 42 43 43 45 41 36 28 26 29 36 37 30 30 32 36 39 45 49 50 48 45 41 42 45 45 44 47 43 41 39 37 33 28 26 24 21 16 13 11
34 44 42 46 43 42 40 40 38 38 41 38 37 33 33 35 40 44 42 40 48 46 53 48 48 46 44 43 40 40 40 38 35 33 30 24 20 17 15 12 5 3 6 9
Wind_Direction
261 255 254 255 251 242 247 247 249 252 257 248 246 243 240 242 244 244 243 244 246 246 245 249 250 250 251 251 253 252 255 258 259 260 261 260 262 263 266 270 270 269 268 270
263 267 252 249 250 244 247 246 248 249 255 248 244 246 244 246 246 244 243 243 244 245 245 246 247 250 251 251 251 251 254 256 258 259 261 263 264 265 266 267 268 269 269 267
263 255 249 247 244 239 240 240 243 244 247 246 243 244 243 243 244 243 240 242 245 245 245 247 245 245 247 248 249 250 251 254 256 258 260 261 264 265 266 267 268 269 270 271
255 252 248 245 242 239 236 239 240 242 244 245 245 243 246 247 241 245 243 239 240 243 246 248 249 247 246 245 246 247 249 250 251 252 256 262 264 266 265 265 266 267 269 271
250 248 244 242 241 238 235 240 238 240 240 241 241 240 245 246 244 243 244 240 238 240 242 243 246 249 249 249 249 249 248 248 249 253 253 253 255 259 262 264 266 268 268 268
238 236 234 233 233 233 229 236 237 238 239 234 243 239 246 244 243 241 243 241 238 237 239 240 242 246 248 249 249 249 249 250 252 253 254 254 255 256 257 259 261 263 266 268
235 231 231 228 227 230 227 233 235 238 238 235 251 240 242 244 241 242 241 241 239 240 240 241 240 242 245 248 250 252 254 256 256 256 256 258 259 260 262 263 263 264 266 267
229 227 225 224 224 231 232 237 236 240 241 242 250 241 239 241 238 240 241 240 239 241 242 241 241 241 243 246 249 252 255 258 261 262 261 261 261 262 262 262 264 264 267 268
225 223 222 218 220 223 225 228 234 237 237 236 243 236 232 232 231 236 238 240 239 243 244 244 244 244 246 248 249 251 254 257 259 261 261 261 261 263 265 265 266 268 267 269
219 219 219 216 217 218 221 226 230 229 231 232 238 233 226 226 228 232 236 235 234 234 236 239 241 244 246 247 250 252 253 252 255 257 256 257 258 261 262 266 267 268 267 268
209 207 211 214 215 215 217 221 224 226 227 228 230 229 220 223 228 229 229 219 222 229 230 237 238 238 236 236 239 241 241 241 246 249 255 258 263 264 266 268 269 268 268 270
198 199 206 209 212 215 217 221 225 225 225 223 221 219 213 215 222 221 223 223 225 230 225 231 231 230 230 232 237 240 241 242 246 249 254 257 261 263 266 268 269 270 272 273
192 196 204 206 210 211 213 216 216 214 214 214 213 211 214 217 218 219 215 221 226 222 225 228 229 219 216 226 236 243 246 250 252 253 252 256 260 263 265 269 270 269 269 270
193 197 199 201 204 207 206 207 203 207 208 206 207 208 213 215 216 219 215 219 220 225 223 225 227 218 218 229 235 240 241 243 246 251 253 255 258 261 263 265 267 268 269 271
186 192 196 197 196 194 196 199 200 202 207 204 203 207 212 213 216 219 217 220 224 227 230 235 230 218 210 230 246 248 247 247 248 248 251 255 257 259 262 263 263 266 267 269
177 182 190 192 190 190 194 196 197 199 207 205 207 207 210 215 215 212 212 216 219 226 234 234 229 220 220 227 232 240 243 241 242 246 249 253 261 265 265 264 266 269 272 272
176 181 185 187 186 190 196 199 198 200 202 203 206 211 210 211 213 215 220 225 229 229 232 231 227 219 223 228 238 246 247 247 243 247 253 260 266 275 277 268 265 269 270 271
172 177 178 182 189 190 194 198 201 201 201 200 205 208 210 208 209 216 221 223 226 229 229 229 230 228 228 240 244 247 252 253 254 254 260 267 268 271 273 266 271 273 272 270
165 180 171 175 183 187 188 191 198 201 198 202 207 207 206 210 216 215 220 220 226 235 236 238 235 235 242 247 248 253 256 259 263 268 272 277 273 276 273 273 273 273 272 271
175 165 158 167 177 176 178 184 192 195 196 197 199 204 210 213 212 223 223 228 232 238 242 243 242 241 244 250 249 250 255 260 264 269 271 271 272 272 272 275 278 277 274 271
177 160 148 157 158 165 169 174 176 176 185 193 200 203 209 210 217 224 230 234 243 244 246 245 243 247 253 258 255 252 256 258 261 265 270 272 273 274 276 276 275 276 277 273
154 152 151 149 153 158 163 170 173 183 191 198 205 211 212 214 216 223 233 240 242 245 251 257 259 258 257 257 257 259 260 262 265 267 268 272 274 275 277 279 280 280 277 275
157 161 156 156 164 167 171 174 177 187 190 194 200 207 208 216 223 234 251 250 252 257 264 279 268 265 265 264 262 262 262 266 270 271 271 275 280 283 283 284 285 282 278 276
177 174 176 169 182 181 182 179 183 181 184 189 196 202 215 213 237 255 271 283 266 260 278 281 273 269 267 267 266 264 268 275 277 278 278 280 283 285 290 288 288 285 281 275
172 184 188 187 182 175 180 186 189 192 183 203 221 225 223 230 253 272 274 276 275 279 283 286 284 279 276 277 272 272 277 281 279 280 283 284 287 287 287 288 288 285 277 265
182 183 188 193 188 191 193 189 194 205 210 215 218 231 250 261 264 267 273 273 279 278 287 284 283 281 279 281 280 280 284 282 280 283 282 283 285 285 280 272 251 176 140 129
Height
10603 10611 10634 10631 10631 10635 10638 10645 10651 10655 10649 10661 10673 10679 10684 10679 10692 10708 10721 10727 10730 10743 10739 10759 10768 10777 10790 10793 10797 10802 10805 10808 10812 10814 10816 10818 10818 10824 10825 10828 10831 10834 10828 10831
10575 10605 10601 10601 10607 10616 10620 10628 10636 10636 10636 10642 10654 10664 10667 10667 10682 10695 10698 10704 10714 10717 10721 10729 10746 10753 10767 10773 10776 10776 10783 10791 10796 10801 10801 10801 10802 10807 10812 10812 10813 10812 10809 10810
10546 10572 10565 10571 10581 10594 10604 10611 10614 10618 10612 10621 10636 10649 10652 10654 10663 10671 10682 10685 10692 10697 10700 10712 10720 10731 10742 10750 10754 10758 10764 10771 10776 10783 10781 10785 10786 10790 10791 10793 10795 10793 10790 10782
10507 10527 10541 10550 10562 10573 10586 10591 10593 10593 10589 10608 10615 10636 10641 10641 10651 10655 10660 10667 10671 10673 10682 10692 10706 10708 10718 10727 10735 10741 10747 10752 10756 10756 10762 10767 10769 10771 10770 10771 10772 10774 10768 10766
10495 10494 10515 10525 10549 10551 10567 10561 10565 10565 10573 10583 10605 10622 10627 10629 10637 10639 10643 10650 10655 10657 10664 10676 10685 10693 10701 10710 10716 10723 10729 10731 10731 10740 10745 10746 10747 10747 10748 10751 10751 10754 10750 10749
10446 10459 10472 10505 10504 10519 10531 10533 10542 10545 10554 10581 10598 10611 10612 10617 10620 10622 10629 10635 10639 10641 10650 10660 10670 10679 10682 10687 10694 10702 10706 10711 10718 10722 10723 10724 10729 10729 10729 10731 10733 10732 10730 10729
10419 10439 10457 10468 10482 10490 10511 10516 10525 10532 10548 10591 10577 10593 10602 10598 10603 10611 10615 10620 10624 10635 10643 10650 10656 10660 10665 10673 10679 10683 10689 10695 10699 10702 10701 10705 10708 10705 10707 10710 10713 10714 10712 10712
10397 10410 10431 10453 10473 10486 10499 10500 10519 10535 10552 10568 10555 10578 10584 10588 10592 10599 10606 10613 10619 10625 10630 10637 10639 10645 10651 10659 10665 10669 10675 10677 10683 10683 10684 10686 10685 10688 10690 10692 10694 10695 10697 10693
10382 10400 10411 10429 10443 10457 10473 10486 10506 10512 10524 10537 10540 10556 10568 10575 10579 10589 10600 10606 10612 10616 10620 10624 10631 10636 10640 10647 10651 10655 10661 10664 10664 10666 10664 10665 10668 10671 10673 10674 10678 10682 10682 10679
10371 10382 10396 10414 10422 10438 10455 10469 10476 10494 10509 10525 10530 10543 10557 10559 10573 10586 10594 10599 10602 10604 10607 10610 10616 10626 10630 10635 10638 10644 10652 10650 10648 10646 10647 10650 10654 10658 10659 10662 10663 10665 10667 10666
10358 10371 10385 10393 10405 10425 10443 10455 10466 10487 10500 10515 10523 10532 10544 10556 10569 10579 10582 10585 10588 10592 10597 10603 10609 10613 10619 10622 10623 10627 10632 10628 10624 10628 10635 10640 10644 10643 10644 10647 10649 10649 10649 10649
10349 10361 10372 10391 10405 10418 10434 10449 10465 10480 10494 10503 10510 10519 10534 10548 10559 10566 10569 10574 10582 10587 10590 10594 10597 10601 10604 10607 10609 10610 10610 10606 10615 10625 10626 10627 10630 10631 10632 10631 10631 10632 10632 10631
10344 10357 10368 10382 10392 10407 10425 10440 10453 10465 10478 10490 10500 10516 10530 10543 10551 10557 10562 10567 10572 10577 10581 10585 10588 10589 10591 10593 10594 10593 10597 10602 10607 10610 10611 10614 10616 10618 10619 10619 10618 10617 10617 10616
10343 10354 10365 10377 10393 10407 10421 10434 10447 10459 10471 10484 10496 10512 10524 10534 10540 10547 10552 10557 10565 10570 10571 10575 10578 10579 10581 10581 10581 10584 10585 10589 10592 10595 10598 10599 10600 10602 10603 10602 10602 10602 10601 10600
10345 10354 10363 10375 10386 10401 10414 10428 10442 10456 10467 10480 10494 10505 10517 10525 10532 10538 10545 10551 10556 10559 10561 10563 10566 10569 10569 10569 10571 10573 10575 10578 10581 10583 10584 10585 10586 10587 10587 10588 10587 10586 10585 10584
10346 10354 10364 10373 10385 10397 10408 10421 10435 10449 10462 10476 10487 10500 10509 10516 10524 10531 10536 10542 10545 10545 10546 10548 10550 10555 10557 10556 10555 10555 10560 10566 10569 10571 10573 10574 10575 10575 10575 10574 10573 10572 10571 10569
10349 10358 10367 10376 10386 10396 10408 10424 10436 10448 10459 10472 10485 10493 10499 10506 10516 10523 10529 10530 10530 10530 10539 10542 10545 10549 10547 10545 10546 10548 10549 10552 10557 10560 10561 10562 10562 10562 10560 10560 10559 10557 10554 10553
10353 10361 10369 10380 10389 10398 10411 10423 10434 10446 10459 10469 10476 10484 10492 10502 10509 10513 10516 10518 10521 10529 10537 10539 10540 10542 10543 10542 10540 10541 10542 10544 10548 10550 10551 10551 10549 10547 10545 10544 10541 10538 10536 10534
10357 10364 10371 10382 10393 10402 10413 10425 10436 10447 10458 10466 10473 10479 10487 10493 10498 10503 10509 10516 10521 10525 10529 10530 10532 10533 10535 10535 10537 10536 10535 10536 10535 10535 10535 10535 10533 10531 10528 10525 10522 10518 10516 10514
10363 10370 10376 10385 10395 10406 10416 10425 10433 10443 10453 10460 10467 10473 10478 10485 10494 10501 10507 10509 10513 10517 10519 10521 10523 10525 10526 10526 10526 10525 10524 10524 10524 10524 10523 10520 10517 10514 10510 10505 10502 10497 10496 10494
10369 10373 10380 10389 10399 10409 10418 10425 10435 10447 10453 10458 10462 10468 10475 10485 10492 10494 10497 10502 10506 10510 10512 10512 10513 10513 10514 10513 10512 10513 10512 10511 10510 10509 10507 10506 10501 10497 10491 10487 10483 10478 10477 10475
10374 10381 10386 10396 10404 10412 10420 10427 10435 10440 10447 10452 10459 10465 10474 10480 10484 10487 10492 10495 10497 10499 10500 10501 10501 10500 10499 10498 10497 10496 10496 10496 10496 10495 10493 10490 10485 10481 10475 10469 10465 10462 10459 10457
10376 10385 10392 10399 10405 10409 10414 10422 10429 10435 10442 10448 10454 10461 10467 10472 10477 10482 10484 10486 10487 10488 10490 10492 10491 10489 10487 10485 10485 10485 10485 10485 10482 10480 10479 10474 10469 10463 10457 10454 10451 10446 10443 10441
10379 10386 10394 10402 10407 10410 10415 10423 10429 10433 10440 10446 10452 10459 10464 10468 10472 10474 10475 10477 10479 10480 10481 10480 10478 10477 10475 10474 10474 10473 10473 10471 10468 10465 10462 10458 10454 10449 10448 10442 10439 10435 10433 10433
10383 10391 10398 10403 10406 10413 10417 10421 10428 10434 10439 10445 10451 10457 10460 10463 10464 10465 10466 10467 10468 10469 10468 10466 10465 10463 10462 10461 10460 10460 10460 10457 10454 10451 10448 10445 10443 10441 10438 10434 10431 10430 10428 10429
10382 10390 10396 10399 10405 10411 10419 10425 10430 10434 10438 10442 10446 10450 10453 10455 10457 10458 10459 10460 10461 10460 10458 10455 10452 10451 10449 10449 10449 10448 10447 10444 10442 10440 10438 10438 10436 10434 10432 10431 10430 10429 10430 10431